This is the latest recevied weather packets stored in our database for station/object SP3ZBZ-13. If no packets are shown the sender has not sent any weather packets the latest 10 day(s).
| Time | Temp. | Humidity | Pressure | Rain* | Wind** | Luminosity | Snow |
|---|---|---|---|---|---|---|---|
| 1777649280 | 23.33° C | 28% | 1020.5 hPa | - | - | 260 W/m² | - |
| 1777648379 | 23.33° C | 29% | 1020.6 hPa | - | - | 295 W/m² | - |
| 1777647478 | 23.33° C | 27% | 1020.6 hPa | - | - | 337 W/m² | - |
| 1777646577 | 22.78° C | 28% | 1020.8 hPa | - | - | 370 W/m² | - |
| 1777645676 | 23.33° C | 29% | 1020.9 hPa | - | - | 413 W/m² | - |
| 1777644775 | 23.33° C | 29% | 1021.1 hPa | - | - | 441 W/m² | - |
| 1777643874 | 22.78° C | 29% | 1021.2 hPa | - | - | 469 W/m² | - |
| 1777642973 | 23.33° C | 29% | 1021.3 hPa | - | - | 503 W/m² | - |
| 1777642072 | 22.78° C | 27% | 1021.3 hPa | - | - | 537 W/m² | - |
| 1777641172 | 22.22° C | 30% | 1021.5 hPa | - | - | 569 W/m² | - |
| 1777640271 | 22.78° C | 28% | 1021.5 hPa | - | - | 589 W/m² | - |
| 1777639370 | 22.22° C | 29% | 1021.7 hPa | - | - | 607 W/m² | - |
| 1777638469 | 22.78° C | 28% | 1021.9 hPa | - | - | 621 W/m² | - |
| 1777637568 | 21.67° C | 30% | 1022 hPa | - | - | 635 W/m² | - |
| 1777636667 | 21.67° C | 31% | 1022.1 hPa | - | - | 646 W/m² | - |
| 1777635766 | 21.11° C | 34% | 1022.4 hPa | - | - | 658 W/m² | - |
| 1777634866 | 21.11° C | 35% | 1022.5 hPa | - | - | 668 W/m² | - |
| 1777633965 | 20.56° C | 36% | 1022.6 hPa | - | - | 676 W/m² | - |
| 1777633064 | 20.56° C | 36% | 1022.7 hPa | - | - | 681 W/m² | - |
| 1777632163 | 20.56° C | 36% | 1022.8 hPa | - | - | 679 W/m² | - |
| 1777631262 | 19.44° C | 40% | 1022.8 hPa | - | - | 673 W/m² | - |
| 1777630361 | 18.89° C | 40% | 1022.9 hPa | - | - | 669 W/m² | - |
| 1777629460 | 18.89° C | 42% | 1023 hPa | - | - | 652 W/m² | - |
| 1777628559 | 17.78° C | 42% | 1023.1 hPa | - | - | 633 W/m² | - |
| 1777627658 | 17.78° C | 42% | 1023.2 hPa | - | - | 618 W/m² | - |
* Rain since midnight (hover to see other rain measurements)
** Current wind speed in m/s (hover to see current wind gust speed)